Terminal Aerodrome Forecast
Issued by NWS Dallas/Fort Worth, TX

Home | Current Version | Previous Version | Text Only | Print | Product List | Glossary On
Versions: 1 2 3 4 5 6 7 8 9 10 11 12 13 14 15 16 17 18 19 20 21 22 23 24 25 26 27 28 29 30
000
FTUS44 KFWD 222100 AAB
TAFACT
TAF AMD
KACT 222101Z 2221/2318 12011KT 3SM TSRA BKN012CB OVC030
     FM230500 15008KT 2SM -RA VCTS OVC005CB
     FM230700 20007KT 6SM BR SCT015 SCT250
     FM231600 24017G27KT P6SM SKC=

USA.gov is the U.S. government's official web portal to all federal, state and local government web resources and services.